Weather History for West Bend, WI

Change the Weather History Date:

Tuesday, September 17, 2013

  Actual Average Record
Temperature  
Mean Temperature 50 °F -  
Max Temperature 64 °F 70 °F 88 °F (1925)
Min Temperature 35 °F 50 °F 35 °F (2013)
Degree Days  
Heating Degree Days 16    
Moisture  
Dew Point 44 °F    
Average Humidity 79    
Maximum Humidity 100    
Minimum Humidity 52    
Precipitation  
Precipitation 0.00 in - - ()
Sea Level Pressure  
Sea Level Pressure 30.27 in    
Wind  
Wind Speed 2 mph (SE)    
Max Wind Speed 13 mph    
Max Gust Speed -    
Visibility 10 miles    
Events      
Averages and records for this station are not official NWS values.
T = Trace of Precipitation, MM = Missing Value Source: NWS Daily Summary

Daily Weather History Graph

Daily Weather History Graph

Search for Another Location

Airport:

Trip Planner

Search our weather history database for the weather conditions in past years. The results will help you decide how hot, cold, wet, or windy it might be!

Date:

Astronomy

Sep. 17, 2013 Rise Set
Actual Time 6:34 AM CDT 6:58 PM CDT
Civil Twilight 6:05 AM CDT 7:27 PM CDT
Nautical Twilight 5:32 AM CDT 8:00 PM CDT
Astronomical Twilight 4:57 AM CDT 8:35 PM CDT
Moon 5:46 PM CDT (9/17) 4:26 AM CDT (9/17)
Length of Visible Light 13h 21m
Length of Day
12h 24m
Waxing Gibbous, 96% of the Moon is Illuminated
Sep 17
Waxing Gibbous
Sep 19
Full
Sep 26
Last Quarter
Oct 4
New
Oct 11
First Quarter

Hourly Weather History & Observations

Time (CDT) Temp. Dew Point Humidity Pressure Visibility Wind Dir Wind Speed Gust Speed Precip Events Conditions
12:15 AM 41.0 °F 37.4 °F 87% 30.36 in 10.0 mi Calm Calm - N/A   Scattered Clouds
12:35 AM 41.0 °F 37.4 °F 87% 30.36 in 10.0 mi Calm Calm - N/A   Scattered Clouds
12:55 AM 41.0 °F 37.4 °F 87% 30.36 in 10.0 mi Calm Calm - N/A   Scattered Clouds
1:15 AM 37.4 °F 35.6 °F 93% 30.36 in 7.0 mi Calm Calm - N/A   Clear
1:35 AM 37.4 °F 37.4 °F 100% 30.36 in 4.0 mi Calm Calm - N/A   Clear
1:55 AM 39.2 °F 37.4 °F 93% 30.36 in 10.0 mi Calm Calm - N/A   Clear
2:15 AM 37.4 °F 37.4 °F 100% 30.36 in 10.0 mi Calm Calm - N/A   Clear
2:35 AM 37.4 °F 35.6 °F 93% 30.35 in 7.0 mi Calm Calm - N/A   Clear
2:55 AM 37.4 °F 35.6 °F 93% 30.36 in 10.0 mi Calm Calm - N/A   Clear
3:15 AM 37.4 °F 35.6 °F 93% 30.36 in 10.0 mi Calm Calm - N/A   Scattered Clouds
3:35 AM 37.4 °F 35.6 °F 93% 30.35 in 7.0 mi Calm Calm - N/A   Scattered Clouds
3:55 AM 37.4 °F 37.4 °F 100% 30.35 in 10.0 mi Calm Calm - N/A   Clear
4:15 AM 37.4 °F 35.6 °F 93% 30.35 in 10.0 mi Calm Calm - N/A   Clear
4:35 AM 37.4 °F 35.6 °F 93% 30.35 in 10.0 mi Calm Calm - N/A   Clear
4:55 AM 37.4 °F 35.6 °F 93% 30.35 in 7.0 mi Calm Calm - N/A   Clear
5:15 AM 37.4 °F 35.6 °F 93% 30.35 in 10.0 mi Calm Calm - N/A   Clear
5:35 AM 37.4 °F 35.6 °F 93% 30.35 in 10.0 mi Calm Calm - N/A   Clear
5:55 AM 37.4 °F 35.6 °F 93% 30.34 in 10.0 mi Calm Calm - N/A   Clear
6:15 AM 35.6 °F 33.8 °F 93% 30.34 in 10.0 mi Calm Calm - N/A   Clear
6:35 AM 37.4 °F 35.6 °F 93% 30.35 in 10.0 mi Calm Calm - N/A   Clear
6:55 AM 37.4 °F 35.6 °F 93% 30.35 in 10.0 mi Calm Calm - N/A   Scattered Clouds
7:15 AM 37.4 °F 35.6 °F 93% 30.35 in 10.0 mi Calm Calm - N/A   Scattered Clouds
7:35 AM 39.2 °F 37.4 °F 93% 30.35 in 10.0 mi Calm Calm - N/A   Clear
7:55 AM 42.8 °F 37.4 °F 81% 30.35 in 10.0 mi Calm Calm - N/A   Clear
8:15 AM 44.6 °F 41.0 °F 87% 30.35 in 10.0 mi Calm Calm - N/A   Clear
8:35 AM 46.4 °F 42.8 °F 87% 30.35 in 10.0 mi Calm Calm - N/A   Clear
8:55 AM 50.0 °F 44.6 °F 82% 30.34 in 10.0 mi Calm Calm - N/A   Clear
9:15 AM 51.8 °F 46.4 °F 82% 30.34 in 10.0 mi Calm Calm - N/A   Clear
9:35 AM 55.4 °F 50.0 °F 82% 30.34 in 10.0 mi South 3.5 mph - N/A   Clear
9:55 AM 59.0 °F 50.0 °F 72% 30.33 in 10.0 mi South 5.8 mph - N/A   Clear
10:15 AM 60.8 °F 50.0 °F 68% 30.33 in 10.0 mi SSE 8.1 mph - N/A   Clear
10:35 AM 60.8 °F 50.0 °F 68% 30.33 in 10.0 mi South 9.2 mph - N/A   Scattered Clouds
10:55 AM 60.8 °F 48.2 °F 63% 30.32 in 10.0 mi South 8.1 mph - N/A   Mostly Cloudy
11:15 AM 62.6 °F 48.2 °F 59% 30.31 in 10.0 mi SSE 5.8 mph - N/A   Mostly Cloudy
11:35 AM 62.6 °F 46.4 °F 55% 30.31 in 10.0 mi SE 8.1 mph - N/A   Mostly Cloudy
11:55 AM 62.6 °F 46.4 °F 55% 30.30 in 10.0 mi SE 8.1 mph - N/A   Overcast
12:15 PM 64.4 °F 46.4 °F 52% 30.29 in 10.0 mi ESE 8.1 mph - N/A   Mostly Cloudy
12:35 PM 64.4 °F 46.4 °F 52% 30.28 in 10.0 mi ESE 6.9 mph - N/A   Mostly Cloudy
12:55 PM 64.4 °F 46.4 °F 52% 30.28 in 10.0 mi SSE 5.8 mph - N/A   Scattered Clouds
1:15 PM 64.4 °F 46.4 °F 52% 30.27 in 10.0 mi SSE 5.8 mph - N/A   Mostly Cloudy
1:35 PM 64.4 °F 48.2 °F 56% 30.26 in 10.0 mi SSE 6.9 mph - N/A   Scattered Clouds
1:55 PM 64.4 °F 48.2 °F 56% 30.25 in 10.0 mi SE 8.1 mph - N/A   Mostly Cloudy
2:15 PM 64.4 °F 50.0 °F 59% 30.24 in 10.0 mi SSE 9.2 mph - N/A   Mostly Cloudy
2:35 PM 64.4 °F 51.8 °F 64% 30.23 in 10.0 mi ESE 6.9 mph - N/A   Mostly Cloudy
2:55 PM 62.6 °F 50.0 °F 63% 30.22 in 10.0 mi ESE 11.5 mph - N/A   Scattered Clouds
3:15 PM 62.6 °F 51.8 °F 68% 30.22 in 10.0 mi ESE 11.5 mph - N/A   Scattered Clouds
3:35 PM 62.6 °F 50.0 °F 63% 30.21 in 10.0 mi ESE 9.2 mph - N/A   Scattered Clouds
3:55 PM 62.6 °F 51.8 °F 68% 30.21 in 10.0 mi ESE 8.1 mph - N/A   Scattered Clouds
4:15 PM 62.6 °F 50.0 °F 63% 30.20 in 10.0 mi SE 12.7 mph - N/A   Clear
4:35 PM 60.8 °F 50.0 °F 68% 30.20 in 10.0 mi SE 10.4 mph - N/A   Clear
4:55 PM 60.8 °F 50.0 °F 68% 30.20 in 10.0 mi SE 9.2 mph - N/A   Clear
5:15 PM 60.8 °F 50.0 °F 68% 30.19 in 10.0 mi SE 6.9 mph - N/A   Clear
5:35 PM 60.8 °F 50.0 °F 68% 30.19 in 10.0 mi SE 8.1 mph - N/A   Clear
5:55 PM 59.0 °F 50.0 °F 72% 30.18 in 10.0 mi East 8.1 mph - N/A   Clear
6:15 PM 59.0 °F 50.0 °F 72% 30.18 in 10.0 mi ESE 6.9 mph - N/A   Clear
6:35 PM 59.0 °F 50.0 °F 72% 30.17 in 10.0 mi ESE 6.9 mph - N/A   Clear
6:55 PM 57.2 °F 50.0 °F 77% 30.17 in 10.0 mi ESE 5.8 mph - N/A   Clear
7:15 PM 57.2 °F 50.0 °F 77% 30.16 in 10.0 mi SE 4.6 mph - N/A   Clear
7:35 PM 57.2 °F 50.0 °F 77% 30.17 in 10.0 mi SE 4.6 mph - N/A   Clear
7:55 PM 55.4 °F 50.0 °F 82% 30.17 in 10.0 mi SE 3.5 mph - N/A   Clear
8:15 PM 55.4 °F 50.0 °F 82% 30.17 in 10.0 mi SE 3.5 mph - N/A   Clear
8:35 PM 55.4 °F 50.0 °F 82% 30.16 in 10.0 mi SE 3.5 mph - N/A   Clear
9:15 PM 55.4 °F 50.0 °F 82% 30.16 in 10.0 mi Calm Calm - N/A   Clear
9:35 PM 55.4 °F 50.0 °F 82% 30.16 in 10.0 mi Calm Calm - N/A   Clear
9:55 PM 53.6 °F 50.0 °F 88% 30.15 in 10.0 mi Calm Calm - N/A   Clear
10:15 PM 53.6 °F 50.0 °F 88% 30.15 in 10.0 mi Calm Calm - N/A   Clear
10:35 PM 51.8 °F 50.0 °F 94% 30.15 in 10.0 mi Calm Calm - N/A   Clear
10:55 PM 51.8 °F 48.2 °F 88% 30.15 in 10.0 mi Calm Calm - N/A   Clear
11:35 PM 51.8 °F 48.2 °F 88% 30.13 in 7.0 mi Calm Calm - N/A   Clear
11:55 PM 50.0 °F 48.2 °F 94% 30.13 in 10.0 mi Calm Calm - N/A   Scattered Clouds